date,time,DOY,Ta_1_1_1,RH_1_1_1,LWin_1_1_1,LWout_1_1_1,SWin_1_1_1,SWout_1_1_1,PPFD_1_1_1,SWC_1_1_1,Ts_1_1_1
[yyyy-mm-dd],[HH:MM],[ddd.ddd],[K],[%],[W+1m-2],[W+1m-2],[W+1m-2],[W+1m-2],[µmol+1m-2s-1],[m+3m-3],[K]
2013-05-11,00:30,131.020,278.62066666666675,57.271333333333331,-7.5339999999999971,-9999.0,-0.38833333333333331,-1.4113333333333338,1.66666666666666656E-003,-9999.0,273.15999999999991
2013-05-11,01:00,131.041,278.36233333333337,60.890000000000001,-7.6699999999999999,-9999.0,-0.40800000000000014,-1.5216666666666667,0.0000000000000000,-9999.0,273.15999999999991
2013-05-11,01:30,131.062,278.29433333333338,62.746000000000002,-7.5010000000000012,-9999.0,-0.41033333333333338,-1.1296666666666668,0.0000000000000000,-9999.0,273.15999999999991
2013-05-11,02:00,131.083,278.25400000000002,66.353666666666669,-7.1906666666666670,-9999.0,-0.39633333333333337,-1.1910000000000001,0.0000000000000000,-9999.0,273.15999999999991
2013-05-11,02:30,131.104,278.50100000000009,65.749666666666656,-6.6393333333333322,-9999.0,-4.06666666666666426E-002,-1.0206666666666666,3.00000000000000006E-003,-9999.0,273.15999999999991
2013-05-11,03:00,131.124,277.92133333333339,65.252999999999986,-6.3780000000000001,-9999.0,-0.62700000000000011,-1.4389999999999998,4.04768811061254995E-019,-9999.0,273.15999999999991
2013-05-11,03:30,131.145,277.31333333333333,57.335666666666675,-6.5536666666666665,-9999.0,-0.47633333333333344,-2.0086666666666666,0.0000000000000000,-9999.0,273.15999999999991
2013-05-11,04:00,131.166,276.34833333333330,58.812666666666679,-5.8286666666666669,-9999.0,-0.62400000000000011,-1.3286666666666667,3.33333333333333322E-004,-9999.0,273.15999999999991
2013-05-11,04:30,131.187,275.36666666666662,59.781666666666659,-4.6973333333333329,-9999.0,-0.56233333333333335,-0.89733333333333343,0.23933333333333331,-9999.0,273.15999999999991
2013-05-11,05:00,131.208,274.53766666666667,78.405666666666676,-4.4043333333333345,-7.5775000000000006,-0.14333333333333334,0.38033333333333341,2.8756666666666666,-9999.0,273.15999999999991
2013-05-11,05:30,131.229,273.37500000000006,96.077666666666673,-2.8640000000000012,-5.2336666666666662,1.3413333333333337,6.4413333333333336,15.074666666666667,-9999.0,273.15999999999991
2013-05-11,06:00,131.249,273.30166666666668,97.792000000000002,-3.3250000000000002,-5.0220000000000002,2.3563333333333327,14.802000000000000,33.326999999999991,-9999.0,273.15999999999991
2013-05-11,06:30,131.270,273.54366666666664,96.782333333333341,-3.6730000000000000,-6.2349999999999985,3.8620000000000001,30.155333333333331,65.287333333333336,-9999.0,273.15999999999991
2013-05-11,07:00,131.291,273.79533333333342,93.495000000000033,-3.5280000000000005,-8.6000000000000014,8.5689999999999991,76.801333333333332,157.48033333333333,-9999.0,273.15999999999991
2013-05-11,07:30,131.312,273.99300000000005,90.099999999999994,-3.3799999999999986,-9.7183333333333319,10.287666666666668,94.213999999999984,194.07133333333337,-9999.0,273.15999999999991
2013-05-11,08:00,131.333,274.09333333333336,80.419000000000011,-2.2923333333333336,-9999.0,18.415000000000003,167.53366666666668,337.43300000000005,-9999.0,273.15999999999991
2013-05-11,08:30,131.354,274.19400000000007,76.667999999999992,-2.4023333333333334,-9999.0,17.735666666666667,160.94799999999998,329.45800000000003,-9999.0,273.15999999999991
2013-05-11,09:00,131.374,274.82333333333338,68.082999999999998,-1.8063333333333333,-9999.0,28.413666666666661,251.84433333333331,503.85766666666655,-9999.0,273.15999999999991
2013-05-11,09:30,131.395,275.04566666666670,64.027333333333345,-1.6906666666666665,-9999.0,26.801000000000002,238.38666666666674,485.64233333333345,-9999.0,273.15999999999991
2013-05-11,10:00,131.416,275.24700000000001,61.078666666666656,-0.80199999999999994,-9999.0,35.030999999999999,305.88400000000001,618.32166666666649,-9999.0,273.15999999999991
2013-05-11,10:30,131.437,275.54633333333328,57.554666666666662,-0.83333333333333359,-9999.0,34.171999999999997,297.79133333333334,605.28966666666645,-9999.0,273.15999999999991
2013-05-11,11:00,131.458,275.53500000000003,58.458666666666680,-0.89833333333333332,-9999.0,30.437333333333338,267.77866666666665,552.41566666666654,-9999.0,273.15999999999991
2013-05-11,11:30,131.479,275.32833333333343,59.108999999999995,-0.98933333333333318,-9999.0,26.062333333333335,227.86466666666664,472.29333333333335,-9999.0,273.15999999999991
2013-05-11,12:00,131.499,275.32400000000013,59.589333333333336,5.00000000000002092E-003,-9999.0,32.457999999999991,281.13433333333336,572.05866666666668,-9999.0,273.15999999999991
2013-05-11,12:30,131.520,275.45900000000000,57.545666666666662,-1.2970000000000002,-9999.0,22.884666666666664,203.64100000000002,434.77066666666656,-9999.0,273.15999999999991
2013-05-11,13:00,131.541,275.50100000000003,57.266333333333336,-0.62166666666666659,-9999.0,26.417333333333339,234.22100000000000,493.07066666666680,-9999.0,273.15999999999991
2013-05-11,13:30,131.562,275.50866666666667,57.258666666666656,-1.1663333333333334,-9999.0,24.580666666666669,215.34933333333339,453.47900000000004,-9999.0,273.15999999999991
2013-05-11,14:00,131.583,275.99633333333344,55.603000000000002,0.22133333333333327,-9999.0,33.891666666666673,291.25666666666672,598.81266666666670,-9999.0,273.15999999999991
2013-05-11,14:30,131.604,276.15600000000006,55.832666666666668,1.3260000000000003,-9999.0,44.037666666666681,372.68466666666671,751.26233333333323,-9999.0,273.15999999999991
2013-05-11,15:00,131.624,275.88533333333334,63.772333333333322,1.1890000000000001,-9999.0,39.009999999999998,328.75966666666670,663.34499999999980,-9999.0,273.15999999999991
2013-05-11,15:30,131.645,274.64699999999999,82.241666666666660,1.6740000000000004,-9999.0,43.114999999999995,359.32333333333338,725.47133333333318,-9999.0,273.15999999999991
2013-05-11,16:00,131.666,274.93099999999998,79.425666666666672,6.53333333333331739E-002,-9999.0,31.654666666666671,267.64333333333337,542.45666666666659,-9999.0,273.15999999999991
2013-05-11,16:30,131.687,274.06733333333329,81.405666666666647,-1.0356666666666667,-9999.0,17.868999999999993,151.16833333333335,311.45200000000006,-9999.0,273.15999999999991
2013-05-11,17:00,131.708,273.65399999999994,87.862666666666669,-1.5489999999999997,-9.0950000000000006,16.214666666666670,127.08033333333334,262.19766666666669,-9999.0,273.15999999999991
2013-05-11,17:30,131.729,273.41066666666666,89.930333333333323,-1.5773333333333333,-9.9800000000000004,14.524333333333333,118.22133333333333,242.65133333333333,-9999.0,273.15999999999991
2013-05-11,18:00,131.749,273.34100000000001,90.054333333333346,-2.1520000000000001,-8.6166666666666671,7.3150000000000013,58.539333333333346,120.52533333333335,-9999.0,273.15999999999991
2013-05-11,18:30,131.770,273.03933333333345,95.545333333333318,-2.2616666666666663,-7.2696666666666676,3.1986666666666665,24.283999999999995,50.950333333333340,-9999.0,273.15999999999991
2013-05-11,19:00,131.791,273.11433333333332,92.513999999999967,-2.9663333333333339,-9.1840000000000011,2.7013333333333325,17.836666666666662,36.340666666666671,-9999.0,273.15999999999991
2013-05-11,19:30,131.812,273.15100000000001,87.879000000000033,-3.5340000000000003,-9999.0,0.90566666666666673,2.5156666666666672,8.7103333333333346,-9999.0,273.15999999999991
2013-05-11,20:00,131.833,272.98500000000001,86.528333333333350,-3.1443333333333334,-9999.0,0.49166666666666659,-0.53966666666666663,0.29366666666666669,-9999.0,273.15999999999991
2013-05-11,20:30,131.854,272.57666666666665,91.461999999999989,-2.8306666666666667,-8.6243750000000006,0.12633333333333333,-0.51500000000000024,1.00000000000000002E-003,-9999.0,273.15999999999991
2013-05-11,21:00,131.874,272.30266666666665,93.676666666666691,-3.1109999999999998,-8.7766666666666655,5.16666666666666732E-002,-0.44466666666666677,-3.33333333333333322E-004,-9999.0,273.15999999999991
2013-05-11,21:30,131.895,272.23900000000009,94.012000000000000,-3.3793333333333329,-9.5850000000000009,3.03333333333333371E-002,-0.51666666666666683,-3.33333333333333376E-004,-9999.0,273.15999999999991
2013-05-11,22:00,131.916,272.20800000000008,95.010000000000005,-3.6423333333333336,-9.5800000000000018,-5.83333333333333620E-002,-0.45300000000000007,1.33333333333333329E-003,-9999.0,273.15999999999991
2013-05-11,22:30,131.937,272.04800000000006,95.125999999999991,-3.7536666666666667,-8.8457142857142852,-0.11300000000000000,-0.46733333333333343,0.0000000000000000,-9999.0,273.15999999999991
2013-05-11,23:00,131.958,271.89099999999996,94.559000000000012,-3.7903333333333342,-9.0925000000000011,-1.40000000000000020E-002,-0.50900000000000001,1.00000000000000002E-003,-9999.0,273.15999999999991
2013-05-11,23:30,131.979,271.84866666666670,93.184666666666701,-3.9739999999999993,-9999.0,3.83333333333333304E-002,-0.72366666666666657,-3.33333333333333214E-004,-9999.0,273.15999999999991
2013-05-12,00:00,132.000,271.71200000000005,92.710999999999999,-3.8743333333333343,-9.4699999999999989,4.53333333333333297E-002,-0.69166666666666665,3.33333333333333322E-004,-9999.0,273.15999999999991
